This is the latest recevied weather packets stored in our database for station/object BARLOW-WX. If no packets are shown the sender has not sent any weather packets the latest 10 day(s).
| Time | Temp. | Humidity | Pressure | Rain* | Wind** | Luminosity | Snow |
|---|---|---|---|---|---|---|---|
| 1777023977 | 16.11° C | 63% | 979.3 hPa | 0 mm | - | - | - |
| 1777023094 | 16.11° C | 65% | 979.6 hPa | 0 mm | - | - | - |
| 1777022179 | 16.11° C | 65% | 979.7 hPa | 0 mm | - | - | - |
| 1777021302 | 16.11° C | 65% | 979.7 hPa | 0 mm | - | - | - |
| 1777020385 | 16.11° C | 63% | 979.1 hPa | 0 mm | - | - | - |
| 1777019491 | 15° C | 69% | 979.4 hPa | 0 mm | - | - | - |
| 1777018578 | 15° C | 69% | 979.4 hPa | 0 mm | - | - | - |
| 1777017700 | 15.56° C | 69% | 979.4 hPa | 0 mm | - | - | - |
| 1777016783 | 15.56° C | 70% | 980.4 hPa | 0 mm | - | - | - |
| 1777015895 | 15.56° C | 70% | 980.4 hPa | 0 mm | - | - | - |
| 1777014978 | 16.11° C | 70% | 980.3 hPa | 0 mm | - | - | - |
| 1777014097 | 16.11° C | 70% | 980.3 hPa | 0 mm | - | - | - |
| 1777013185 | 16.11° C | 67% | 980.3 hPa | 0 mm | - | - | - |
| 1777012294 | 16.67° C | 67% | 979.8 hPa | 0 mm | - | - | - |
| 1777011386 | 16.11° C | 67% | 979.8 hPa | 0 mm | - | - | - |
| 1777010507 | 16.11° C | 67% | 979.8 hPa | 0 mm | - | - | - |
| 1777009583 | 16.67° C | 62% | 980.8 hPa | 0 mm | - | - | - |
| 1777008688 | 16.67° C | 64% | 981 hPa | 0 mm | - | - | - |
| 1777007776 | 16.67° C | 64% | 981 hPa | 0 mm | - | - | - |
| 1777006901 | 17.22° C | 64% | 981 hPa | 0 mm | - | - | - |
| 1777005985 | 17.22° C | 60% | 979.9 hPa | 0 mm | - | - | - |
| 1777005090 | 17.78° C | 60% | 979.9 hPa | 0 mm | - | - | - |
| 1777004185 | 17.78° C | 59% | 979.9 hPa | 0 mm | - | - | - |
| 1777003303 | 17.78° C | 59% | 979.9 hPa | 0 mm | - | - | - |
| 1777002385 | 18.33° C | 60% | 980.3 hPa | 0 mm | - | - | - |
* Rain latest hour (hover to see other rain measurements)
** Current wind speed in m/s (hover to see current wind gust speed)